Location: College Park
(38.9810°N, 76.9370°W)
Time: 03:36:05
(UTC-05:00)

N. Korean satellite - Pass Details

Date: 13 November 2017
Orbit: 460 x 515 km, 97.2° (Epoch: 17 November)

Event Time Altitude Azimuth Distance (km) Brightness Sun altitude
Rises 17:35:39 0° 145° (SE) 2,472 10.0 -8.2°
Reaches altitude 10° 17:37:49 10° 134° (SE) 1,606 8.9 -8.7°
Maximum altitude 17:40:51 30° 72° (ENE) 869 7.3 -9.2°
Drops below altitude 10° 17:43:56 10° 11° (N) 1,632 9.0 -9.8°
Sets 17:46:10 0° 360° (N) 2,522 10.0 -10.2°
